Location: Bun Machan
(52.1403°N, 7.3744°W)
Time: 01:01:20
(UTC+00:00)

USA 32 - Pass Details

Date: 14 July 2020
Orbit: 776 x 783 km, 85.0° (Epoch: 02 August)

Event Time Altitude Azimuth Distance (km) Brightness Sun altitude
Exits shadow 01:04:17 24° 205° (SSW) 1,562 5.0 -16.0°
Maximum altitude 01:07:23 63° 280° (W) 874 4.3 -15.9°
Drops below altitude 10° 01:12:37 10° 2° (N) 2,348 7.9 -15.8°
Sets 01:15:00 0° 5° (N) 3,279 9.1 -15.7°
